{"data":{"norad_id":58253,"intl_designator":"2023-172A","name":"ZHONGXING-6E","alt_names":[],"object_type":"PAYLOAD","status":"ACTIVE","operator":null,"country":"PRC","launch_date":"2023-11-09","launch_site_code":"XICLF","launch_vehicle":null,"mission":null,"orbit_class":"UNKNOWN","rcs_meters":null,"size_class":null,"mass_kg":null,"dimensions":null,"purposes":["comms"],"wikipedia_slug":null,"has_3d_model":false,"image_url":null,"decayed_at":null,"tle_current":{"epoch":"2026-09-19T20:05:42.093600Z","epoch_age_seconds":75481,"freshness":"FRESH","line1":"1 58253U 23172A   26262.83729275 -.00000366  00000+0  00000+0 0  9993","line2":"2 58253   0.0430 252.8212 0002434 279.8925 242.9522  1.00275907 10603","mean_motion":1.00275907,"eccentricity":0.0002434,"inclination_deg":0.043,"raan_deg":252.8212,"arg_perigee_deg":279.8925,"mean_anomaly_deg":242.9522,"bstar":0,"rev_number":1060,"period_min":1436.0378709913,"perigee_km":35775.176840033,"apogee_km":35795.702069051,"semimajor_km":42163.576454542,"source":"CELESTRAK","updated_at":"2026-09-20T09:00:35.335163Z"}}}